KD7RF Weather Reports


time (UTC)temp
C
wind
direction
speed
KPH
gust
KPH
rain 1hr
cm
rain 24hr
cm
rain mn
cm
humidity
%
barometer
mb
20211017162545 16 14 3.2 9.7 0.00 0.00 0.00 50 1025.5
20211017162102 16 58 3.2 12.9 0.00 0.00 0.00 50 1025.5
20211017161625 16 288 3.2 12.9 0.00 0.00 0.00 51 1025.6
20211017161100 16 100 1.6 12.9 0.00 0.00 0.00 52 1025.5
20211017160538 16 32 4.8 12.9 0.00 0.00 0.00 53 1025.5
20211017160058 16 40 4.8 12.9 0.00 0.00 0.00 56 1025.4
20211017155532 16 201 1.6 12.9 0.00 0.00 0.00 60 1025.4
20211017155033 15 102 3.2 14.5 0.00 0.00 0.00 56 1025.5
20211017154530 15 194 4.8 14.5 0.00 0.00 0.00 57 1025.4
20211017154025 15 131 4.8 9.7 0.00 0.00 0.00 57 1025.4
20211017153528 15 9 3.2 14.5 0.00 0.00 0.00 61 1025.4
20211017153033 15 85 1.6 11.3 0.00 0.00 0.00 66 1025.4
20211017152528 15 5 3.2 8.0 0.00 0.00 0.00 65 1025.4
20211017152019 14 88 1.6 8.0 0.00 0.00 0.00 69 1025.3
20211017151550 14 238 1.6 8.0 0.00 0.00 0.00 70 1025.3
20211017151023 13 23 1.6 8.0 0.00 0.00 0.00 71 1025.4
20211017150515 13 64 1.6 8.0 0.00 0.00 0.00 75 1025.3
20211017150054 13 5 1.6 6.4 0.00 0.00 0.00 75 1025.3
20211017145513 13 82 0.0 9.7 0.00 0.00 0.00 75 1025.3
20211017145012 12 264 3.2 9.7 0.00 0.00 0.00 75 1025.3
20211017144531 12 250 1.6 8.0 0.00 0.00 0.00 76 1025.2
20211017144012 12 99 3.2 6.4 0.00 0.00 0.00 79 1025.3
20211017143509 12 192 0.0 4.8 0.00 0.00 0.00 81 1025.3
20211017143009 12 114 0.0 6.4 0.00 0.00 0.00 82 1025.4
20211017142506 12 269 1.6 6.4 0.00 0.00 0.00 79 1025.4
20211017142006 11 318 0.0 4.8 0.00 0.00 0.00 80 1025.3
20211017141509 11 182 0.0 6.4 0.00 0.00 0.00 83 1025.4
20211017141003 11 30 1.6 6.4 0.00 0.00 0.00 82 1025.2
20211017140501 11 168 1.6 6.4 0.00 0.00 0.00 85 1025.2
20211017140121 10 265 0.0 4.8 0.00 0.00 0.00 85 1025.1
20211017135601 10 219 0.0 3.2 0.00 0.00 0.00 85 1025.2
20211017135058 10 26 0.0 3.2 0.00 0.00 0.00 88 1025.1
20211017134655 10 43 0.0 3.2 0.00 0.00 0.00 89 1025.1
20211017134054 9 300 0.0 4.8 0.00 0.00 0.00 90 1025.1
20211017133555 8 235 1.6 4.8 0.00 0.00 0.00 90 1025.1
20211017133156 8 65 0.0 6.4 0.00 0.00 0.00 91 1025.1
20211017132600 8 81 1.6 6.4 0.00 0.00 0.00 93 1025.1
20211017132049 8 180 0.0 4.8 0.00 0.00 0.00 94 1025.1
20211017131645 7 180 0.0 4.8 0.00 0.00 0.00 95 1025.2
20211017131046 7 180 0.0 4.8 0.00 0.00 0.00 96 1025.1
20211017130547 7 180 0.0 3.2 0.00 0.00 0.00 97 1025.0
20211017130057 6 242 0.0 1.6 0.00 0.00 0.00 97 1024.9
20211017125542 6 242 0.0 1.6 0.00 0.00 0.00 98 1025.0
20211017125051 6 264 0.0 1.6 0.00 0.00 0.00 98 1025.0
20211017124543 6 264 0.0 1.6 0.00 0.00 0.00 98 1025.0
20211017124041 6 264 0.0 1.6 0.00 0.00 0.00 98 1024.9
20211017123602 5 264 0.0 0.0 0.00 0.00 0.00 98 1024.8
20211017123157 5 264 0.0 0.0 0.00 0.00 0.00 97 1024.8
20211017122546 5 264 0.0 0.0 0.00 0.00 0.00 97 1024.9
20211017122039 5 264 0.0 0.0 0.00 0.00 0.00 97 1024.8
20211017121616 5 264 0.0 0.0 0.00 0.00 0.00 97 1024.8
20211017121037 5 264 0.0 0.0 0.00 0.00 0.00 97 1024.8
20211017120541 5 264 0.0 0.0 0.00 0.00 0.00 97 1024.7
20211017120100 5 264 0.0 0.0 0.00 0.00 0.00 97 1024.7
20211017115536 5 264 0.0 1.6 0.00 0.00 0.00 97 1024.6
20211017115034 5 264 0.0 1.6 0.00 0.00 0.00 97 1024.5
20211017114558 5 264 0.0 1.6 0.00 0.00 0.00 97 1024.5
20211017114035 5 264 0.0 1.6 0.00 0.00 0.00 97 1024.5
20211017113534 5 264 0.0 0.0 0.00 0.00 0.00 97 1024.4
20211017113112 5 264 0.0 1.6 0.00 0.00 0.00 97 1024.3
20211017112534 5 264 0.0 1.6 0.00 0.00 0.00 97 1024.3
20211017112031 5 264 0.0 1.6 0.00 0.00 0.00 97 1024.2
20211017111540 5 264 0.0 1.6 0.00 0.00 0.00 97 1024.2
20211017111031 5 264 0.0 0.0 0.00 0.00 0.00 97 1024.2
20211017110532 5 264 0.0 0.0 0.00 0.00 0.00 97 1024.1
20211017110105 5 264 0.0 1.6 0.00 0.00 0.00 97 1024.2
20211017105536 5 264 0.0 1.6 0.00 0.00 0.00 97 1024.1
20211017105030 5 264 0.0 0.0 0.00 0.00 0.00 97 1024.2
20211017104536 5 264 0.0 0.0 0.00 0.00 0.00 97 1024.2
20211017104029 5 264 0.0 0.0 0.00 0.00 0.00 97 1024.1
20211017103538 5 264 0.0 0.0 0.00 0.00 0.00 97 1024.1
20211017103054 4 264 0.0 0.0 0.00 0.00 0.00 97 1024.1
20211017102528 4 264 0.0 0.0 0.00 0.00 0.00 97 1024.1
20211017102045 4 264 0.0 0.0 0.00 0.00 0.00 97 1023.9
20211017101543 4 264 0.0 0.0 0.00 0.00 0.00 97 1024.0
20211017101027 4 264 0.0 0.0 0.00 0.00 0.00 97 1024.0
20211017100529 4 264 0.0 0.0 0.00 0.00 0.00 97 1023.9
20211017100100 5 264 0.0 0.0 0.00 0.00 0.00 97 1023.9
20211017095530 5 264 0.0 0.0 0.00 0.00 0.00 97 1024.0
20211017095025 5 264 0.0 0.0 0.00 0.00 0.00 97 1023.9
20211017094536 5 264 0.0 0.0 0.00 0.00 0.00 97 1023.9
20211017094023 5 264 0.0 0.0 0.00 0.00 0.00 96 1023.9
20211017093522 5 264 0.0 0.0 0.00 0.00 0.00 96 1023.9
20211017093022 5 264 0.0 0.0 0.00 0.00 0.00 96 1023.8
20211017092520 5 264 0.0 0.0 0.00 0.00 0.00 97 1023.8
20211017092026 5 264 0.0 0.0 0.00 0.00 0.00 97 1023.8
20211017091527 5 264 0.0 0.0 0.00 0.00 0.00 97 1023.7
20211017091021 5 264 0.0 1.6 0.00 0.00 0.00 97 1023.6
20211017090520 5 264 0.0 0.0 0.00 0.00 0.00 97 1023.7
20211017090025 5 264 0.0 0.0 0.00 0.00 0.00 97 1023.6
20211017085526 5 264 0.0 0.0 0.00 0.05 0.00 97 1023.6
20211017085019 5 264 0.0 0.0 0.00 0.05 0.00 97 1023.6
20211017084624 5 264 0.0 0.0 0.00 0.05 0.00 96 1023.6
20211017084017 5 264 0.0 0.0 0.00 0.05 0.00 96 1023.6
20211017083529 5 264 0.0 0.0 0.00 0.05 0.00 96 1023.5
20211017083024 5 264 0.0 0.0 0.00 0.05 0.00 96 1023.5
20211017082516 5 264 0.0 0.0 0.00 0.05 0.00 96 1023.6
20211017082016 5 264 0.0 0.0 0.00 0.05 0.00 96 1023.5
20211017081532 5 264 0.0 0.0 0.00 0.05 0.00 96 1023.5
20211017081031 5 264 0.0 0.0 0.00 0.05 0.00 96 1023.6
20211017080514 5 264 0.0 0.0 0.00 0.05 0.00 96 1023.5
20211017080027 5 264 0.0 0.0 0.00 0.05 0.00 97 1023.5
20211017075512 5 264 0.0 0.0 0.00 0.05 0.00 96 1023.4
20211017075016 6 264 0.0 0.0 0.00 0.05 0.00 96 1023.4
20211017074514 6 264 0.0 0.0 0.00 0.05 0.00 96 1023.3
20211017074020 6 264 0.0 0.0 0.00 0.05 0.00 96 1023.3
20211017073510 6 264 0.0 0.0 0.00 0.05 0.00 96 1023.5
20211017073022 6 264 0.0 1.6 0.00 0.05 0.00 96 1023.4
20211017072510 6 264 0.0 1.6 0.00 0.05 0.00 96 1023.5
20211017072009 6 264 0.0 1.6 0.00 0.05 0.00 96 1023.5
20211017071509 6 264 0.0 1.6 0.00 0.05 0.00 96 1023.4
20211017071021 6 264 0.0 1.6 0.00 0.05 0.00 96 1023.4
20211017070507 6 264 0.0 1.6 0.00 0.05 0.00 96 1023.4
20211017070032 6 264 0.0 1.6 0.00 0.05 0.00 96 1023.4
20211017065506 6 264 0.0 3.2 0.00 0.05 0.00 96 1023.2
20211017065006 6 264 1.6 3.2 0.00 0.05 0.00 96 1023.3
20211017064525 6 264 0.0 3.2 0.00 0.05 0.00 96 1023.2
20211017064003 6 264 0.0 1.6 0.00 0.05 0.00 96 1023.1
20211017063508 6 264 0.0 1.6 0.00 0.05 0.00 96 1023.2
20211017063003 6 264 0.0 0.0 0.00 0.05 0.00 96 1023.2
20211017062502 6 264 0.0 1.6 0.00 0.05 0.00 96 1023.2
20211017062004 6 264 0.0 1.6 0.00 0.05 0.00 96 1023.2
20211017061500 6 264 0.0 1.6 0.00 0.05 0.00 96 1023.1
20211017061001 6 264 0.0 1.6 0.00 0.05 0.00 96 1023.0
20211017060611 6 264 0.0 1.6 0.00 0.05 0.00 96 1023.0
20211017060115 6 264 0.0 1.6 0.00 0.05 0.00 96 1023.1
20211017055614 6 264 0.0 1.6 0.00 1.04 0.00 96 1022.9
20211017055123 6 264 0.0 0.0 0.00 1.04 0.00 95 1023.0
20211017054711 6 264 0.0 0.0 0.00 1.04 0.00 95 1023.0
20211017054057 6 264 0.0 0.0 0.00 1.04 0.00 95 1022.8
20211017053608 6 264 0.0 0.0 0.00 1.04 0.00 95 1022.9
20211017053154 6 264 0.0 0.0 0.00 1.04 0.00 95 1022.9
20211017052557 6 264 0.0 0.0 0.00 1.04 0.00 96 1022.8
20211017052056 6 264 0.0 0.0 0.00 1.04 0.00 95 1022.8
20211017051646 6 264 0.0 0.0 0.00 1.04 0.00 95 1022.8
20211017051109 6 264 0.0 0.0 0.00 1.04 0.00 95 1022.8
20211017050554 6 264 0.0 0.0 0.00 1.04 0.00 95 1022.8
20211017050220 6 264 0.0 0.0 0.00 1.04 0.00 95 1022.9
20211017045605 7 264 0.0 0.0 0.00 1.37 1.04 95 1022.8
20211017045053 7 264 0.0 0.0 0.00 1.37 1.04 95 1022.8
20211017044626 7 264 0.0 0.0 0.00 1.37 1.04 95 1022.8
20211017044107 7 264 0.0 0.0 0.00 1.37 1.04 95 1022.8
20211017043555 7 264 0.0 0.0 0.00 1.37 1.04 95 1022.8
20211017043109 7 264 0.0 0.0 0.00 1.37 1.04 95 1022.8
20211017042554 7 264 0.0 0.0 0.00 1.37 1.04 95 1022.9
20211017042049 7 264 0.0 0.0 0.00 1.37 1.04 95 1022.9
20211017041637 7 264 0.0 0.0 0.00 1.37 1.04 95 1023.0
20211017041056 7 264 0.0 0.0 0.00 1.37 1.04 94 1022.9
20211017040549 7 264 0.0 0.0 0.00 1.37 1.04 94 1023.0
20211017040149 7 264 0.0 0.0 0.00 1.37 1.04 94 1022.8
20211017035548 7 264 0.0 0.0 0.00 1.37 1.04 94 1022.8
20211017035114 7 264 0.0 0.0 0.00 1.37 1.04 94 1022.7
20211017034641 7 264 0.0 0.0 0.00 1.37 1.04 94 1022.6
20211017034047 7 264 0.0 0.0 0.00 1.37 1.04 93 1022.7
20211017033552 7 264 0.0 0.0 0.00 1.37 1.04 93 1022.7
20211017033118 7 264 0.0 0.0 0.00 1.37 1.04 93 1022.7
20211017032545 7 264 0.0 0.0 0.00 1.37 1.04 93 1022.8
20211017032045 7 264 0.0 0.0 0.00 1.37 1.04 92 1022.7
20211017031608 7 264 0.0 0.0 0.00 1.37 1.04 92 1022.7
20211017031042 8 264 0.0 0.0 0.00 1.37 1.04 92 1022.6
20211017030541 8 264 0.0 0.0 0.00 1.37 1.04 92 1022.6
20211017030057 8 264 0.0 0.0 0.00 1.37 1.04 92 1022.6
20211017025539 8 264 0.0 0.0 0.00 2.03 1.04 91 1022.5
20211017025040 8 264 0.0 0.0 0.00 2.03 1.04 91 1022.5
20211017024559 8 264 0.0 0.0 0.00 2.03 1.04 91 1022.4
20211017024039 8 264 0.0 0.0 0.00 2.03 1.04 91 1022.3
20211017023535 8 264 0.0 1.6 0.00 2.03 1.04 90 1022.3
20211017023110 8 264 0.0 3.2 0.00 2.03 1.04 90 1022.3
20211017022542 8 264 0.0 3.2 0.00 2.03 1.04 90 1022.3
20211017022036 8 264 0.0 0.0 0.00 2.03 1.04 88 1022.2
20211017021606 8 264 0.0 0.0 0.00 2.03 1.04 87 1022.1
20211017021034 8 264 0.0 0.0 0.00 2.03 1.04 86 1022.2
20211017020535 9 264 0.0 0.0 0.00 2.03 1.04 87 1022.2
20211017020049 9 264 0.0 0.0 0.00 2.03 1.04 86 1022.3
20211017015537 9 264 0.0 0.0 0.00 3.20 1.04 84 1022.2
20211017015033 9 264 0.0 0.0 0.00 3.20 1.04 85 1022.2
20211017014610 9 264 0.0 0.0 0.00 3.20 1.04 85 1022.3
20211017014031 9 264 0.0 0.0 0.00 3.20 1.04 85 1022.0
20211017013529 9 264 0.0 0.0 0.00 3.20 1.04 84 1021.9
20211017013056 9 264 0.0 0.0 0.00 3.20 1.04 83 1022.0
20211017012529 9 264 0.0 0.0 0.00 3.20 1.04 82 1021.9
20211017012032 10 264 0.0 0.0 0.00 3.20 1.04 80 1021.9
20211017011608 10 264 0.0 0.0 0.00 3.20 1.04 80 1021.9
20211017011033 10 264 0.0 0.0 0.00 3.20 1.04 80 1021.8
20211017010525 10 264 0.0 0.0 0.00 3.20 1.04 79 1021.8
20211017010107 10 264 0.0 0.0 0.00 3.20 1.04 79 1021.7
20211017005524 10 264 0.0 0.0 0.00 3.99 1.04 78 1021.7
20211017005022 10 264 0.0 0.0 0.00 3.99 1.04 78 1021.6
20211017004527 11 264 0.0 0.0 0.00 3.99 1.04 78 1021.6
20211017004037 11 264 0.0 0.0 0.00 3.99 1.04 77 1021.5
20211017003519 11 264 0.0 0.0 0.00 3.99 1.04 77 1021.5
20211017003048 11 264 0.0 0.0 0.00 3.99 1.04 76 1021.5
20211017002518 11 264 0.0 0.0 0.00 3.99 1.04 74 1021.5
20211017002017 11 264 0.0 0.0 0.00 3.99 1.04 74 1021.5
20211017001525 11 264 0.0 0.0 0.00 3.99 1.04 71 1021.4
20211017001016 11 264 0.0 0.0 0.00 3.99 1.04 71 1021.4
20211017000516 12 264 0.0 0.0 0.00 3.99 1.04 70 1021.4
20211017000018 12 264 0.0 0.0 0.00 3.99 1.04 69 1021.3
20211016235515 12 264 0.0 0.0 0.00 3.99 1.04 68 1021.2
20211016235019 12 264 0.0 0.0 0.00 3.99 1.04 68 1021.2
20211016234515 12 264 0.0 1.6 0.00 3.99 1.04 67 1021.1
20211016234017 13 264 0.0 1.6 0.00 3.99 1.04 67 1021.0
20211016233516 13 264 0.0 1.6 0.00 3.99 1.04 66 1021.0
20211016233027 13 264 0.0 1.6 0.00 3.99 1.04 64 1020.9
20211016232514 13 264 0.0 0.0 0.00 3.99 1.04 63 1020.9
20211016232013 13 264 0.0 1.6 0.00 3.99 1.04 63 1020.8
20211016231513 14 264 0.0 1.6 0.00 3.99 1.04 60 1020.8
20211016231026 14 264 0.0 1.6 0.00 3.99 1.04 58 1020.8
20211016230517 15 264 0.0 1.6 0.00 3.99 1.04 57 1020.8
20211016230019 15 264 0.0 1.6 0.00 3.99 1.04 57 1020.8
20211016225515 15 264 0.0 3.2 0.00 3.99 1.04 56 1020.7
20211016225012 15 264 0.0 3.2 0.00 3.99 1.04 54 1020.7
20211016224516 16 264 0.0 4.8 0.00 3.99 1.04 55 1020.6
20211016224012 16 264 1.6 6.4 0.00 3.99 1.04 53 1020.7
20211016223512 16 139 1.6 6.4 0.00 3.99 1.04 51 1020.6
20211016223013 16 91 1.6 11.3 0.00 3.99 1.04 50 1020.6
20211016222510 17 127 1.6 11.3 0.00 3.99 1.04 48 1020.6
20211016222011 17 44 1.6 6.4 0.00 3.99 1.04 48 1020.6
20211016221513 17 53 1.6 8.0 0.00 3.99 1.04 46 1020.5
20211016221010 17 342 1.6 12.9 0.00 3.99 1.04 45 1020.6
20211016220512 17 288 1.6 12.9 0.00 3.99 1.04 47 1020.6
20211016220016 17 254 0.0 6.4 0.00 3.99 1.04 49 1020.5
20211016215513 17 79 1.6 11.3 0.00 3.99 1.04 48 1020.5
20211016215009 18 157 1.6 11.3 0.00 3.99 1.04 46 1020.5
20211016214523 18 260 1.6 11.3 0.00 3.99 1.04 46 1020.4
20211016214010 18 65 1.6 6.4 0.00 3.99 1.04 48 1020.3
20211016213510 18 54 1.6 9.7 0.00 3.99 1.04 46 1020.3
20211016213025 18 292 1.6 8.0 0.00 3.99 1.04 47 1020.3
20211016212511 18 159 1.6 14.5 0.00 3.99 1.04 43 1020.3
20211016212009 18 182 3.2 14.5 0.00 3.99 1.04 42 1020.3
20211016211511 18 280 1.6 16.1 0.00 3.99 1.04 43 1020.1
20211016211008 18 319 4.8 12.9 0.00 3.99 1.04 41 1020.0
20211016210508 18 319 4.8 16.1 0.00 3.99 1.04 43 1020.1
20211016210035 18 235 3.2 20.9 0.00 3.99 1.04 41 1020.0
20211016205508 18 251 4.8 20.9 0.00 3.99 1.04 43 1020.0
20211016205007 18 12 3.2 8.0 0.00 3.99 1.04 43 1020.0
20211016204510 18 338 1.6 9.7 0.00 3.99 1.04 44 1020.1
20211016204007 18 262 4.8 11.3 0.00 3.99 1.04 43 1020.2
20211016203507 18 83 4.8 11.3 0.00 3.99 1.04 43 1020.1
20211016203026 18 146 1.6 6.4 0.00 3.99 1.04 46 1020.1
20211016202506 18 318 1.6 19.3 0.00 3.99 1.04 45 1020.0
20211016202007 18 299 4.8 14.5 0.00 3.99 1.04 42 1020.0
20211016201511 18 327 3.2 12.9 0.00 3.99 1.04 45 1020.1
20211016201005 18 261 3.2 12.9 0.00 3.99 1.04 43 1020.1
20211016200505 18 241 1.6 12.9 0.00 3.99 1.04 43 1020.1
20211016200016 18 270 6.4 12.9 0.00 3.99 1.04 41 1019.9
20211016195504 18 335 4.8 12.9 0.00 3.99 1.04 41 1020.0
20211016195005 18 24 3.2 11.3 0.00 3.99 1.04 41 1019.8
20211016194514 18 98 3.2 11.3 0.00 3.99 1.04 45 1019.8
20211016194009 18 338 4.8 14.5 0.00 3.99 1.04 42 1019.9
20211016193503 18 33 4.8 14.5 0.00 3.99 1.04 43 1019.8
20211016192504 18 13 4.8 14.5 0.00 3.99 1.04 43 1019.7
20211016192002 18 42 4.8 14.5 0.00 3.99 1.04 45 1019.7
20211016191504 18 5 3.2 16.1 0.00 3.99 1.04 43 1019.8
20211016191001 18 332 3.2 19.3 0.00 3.99 1.04 43 1019.9
20211016190501 18 305 4.8 19.3 0.00 3.99 1.04 44 1020.0
20211016190017 18 329 4.8 16.1 0.00 3.99 1.04 45 1020.0
20211016185501 18 330 6.4 17.7 0.00 3.99 1.04 42 1020.0
20211016185101 18 74 4.8 17.7 0.00 3.99 1.04 44 1020.1
20211016184059 18 343 3.2 12.9 0.00 3.99 1.04 46 1020.2
20211016183559 18 84 4.8 19.3 0.00 3.99 1.04 48 1020.3
20211016183151 18 300 8.0 19.3 0.00 3.99 1.04 45 1020.3
20211016182559 18 61 6.4 19.3 0.00 3.99 1.04 48 1020.3
20211016182104 18 247 3.2 17.7 0.00 3.99 1.04 46 1020.3
20211016181729 18 329 3.2 17.7 0.00 3.99 1.04 52 1020.3
20211016181124 17 304 6.4 17.7 0.00 3.99 1.04 45 1020.3
20211016180601 17 236 4.8 14.5 0.00 3.99 1.04 49 1020.2
20211016180200 17 279 4.8 14.5 0.00 3.99 1.04 46 1020.3
20211016175559 17 179 3.2 14.5 0.00 3.99 1.04 48 1020.3
20211016175057 17 47 3.2 12.9 0.00 3.99 1.04 50 1020.4
20211016174620 17 160 4.8 14.5 0.00 3.99 1.04 51 1020.4
20211016174114 17 321 4.8 12.9 0.00 3.99 1.04 48 1020.6
20211016173554 17 279 4.8 14.5 0.00 3.99 1.04 47 1020.6
20211016173146 17 113 4.8 16.1 0.00 3.99 1.04 49 1020.7
20211016172555 17 49 4.8 16.1 0.00 3.99 1.04 52 1020.8
20211016172056 17 333 4.8 8.0 0.00 3.99 1.04 50 1020.9
20211016171636 17 229 3.2 19.3 0.00 3.99 1.04 54 1021.0
20211016171055 17 298 4.8 19.3 0.00 3.99 1.04 52 1021.0
20211016170554 17 38 3.2 14.5 0.00 3.99 1.04 53 1021.0
20211016170131 17 295 3.2 19.3 0.00 3.99 1.04 52 1021.0
20211016165600 17 355 6.4 19.3 0.00 3.99 1.04 54 1021.1
20211016165053 16 340 3.2 19.3 0.00 3.99 1.04 53 1021.0
20211016164638 16 348 4.8 19.3 0.00 3.99 1.04 52 1020.9
20211016164105 16 288 3.2 14.5 0.00 3.99 1.04 55 1020.9
20211016163552 16 123 3.2 22.5 0.00 3.99 1.04 55 1021.1
20211016163109 16 136 4.8 22.5 0.00 3.99 1.04 54 1021.1